{"data":{"norad_id":56554,"intl_designator":"2023-065BD","name":"STARLINK-6295","alt_names":[],"object_type":"PAYLOAD","status":"ACTIVE","operator":null,"country":"US","launch_date":"2023-05-14","launch_site_code":"AFETR","launch_vehicle":null,"mission":null,"orbit_class":"UNKNOWN","rcs_meters":null,"size_class":null,"mass_kg":null,"dimensions":null,"purposes":["comms"],"wikipedia_slug":null,"has_3d_model":false,"image_url":null,"decayed_at":null,"tle_current":{"epoch":"2026-05-25T00:32:14.930592Z","epoch_age_seconds":76206,"freshness":"FRESH","line1":"1 56554U 23065BD  26145.02239503  .00001043  00000+0  47417-4 0  9997","line2":"2 56554  43.0031 152.7141 0001765 269.6685  90.3964 15.27578277168142","mean_motion":15.27578277,"eccentricity":0.0001765,"inclination_deg":43.0031,"raan_deg":152.7141,"arg_perigee_deg":269.6685,"mean_anomaly_deg":90.3964,"bstar":4.7417e-5,"rev_number":16814,"period_min":94.266855039861,"perigee_km":481.84325506978,"apogee_km":484.26525558291,"semimajor_km":6861.1912553263,"source":"CELESTRAK","updated_at":"2026-05-25T13:38:18.117523Z"}}}